Location: Lake Almanor
(40.2485°N, 121.1442°W)
Time: 07:47:21
(UTC-08:00)

STARLINK-1093 - Pass Details

Date: 31 January 2020
Orbit: 348 x 351 km, 53.0° (Epoch: 28 February)

Event Time Altitude Azimuth Distance (km) Brightness Sun altitude
Rises 19:36:11 0° 298° (WNW) 2,175 7.6 -25.8°
Reaches altitude 10° 19:38:26 10° 284° (WNW) 1,326 6.5 -26.2°
Enters shadow 19:39:36 18° 266° (W) 972 5.7 -26.5°
